"TOA5","AWS1","CR1000","7964","CR1000.Std.14","CPU:AWS1_114.CR1","64363","TBL110"
"TIMESTAMP","RECORD","Wind_spd_WVc(1)","Wind_spd_WVc(2)","Air_Temp_Avg","Humidity_Avg","SW_upper_Wm2_Avg","Rain_Tot","Press_Avg","Issui_Tot","Depth_cm","SR50A_Raw","Quality","Ground_Temp_Avg(1)","Ground_Temp_Avg(2)","SW_lower_Wm2_Avg","Albedo_Avg","SWC_per(1)","SWC_per(2)","Period(1)","Period(2)"
"TS","RN","","","","","","","","","","","","","","","","","","",""
"","","WVc","WVc","Avg","Avg","Avg","Tot","Avg","Tot","Smp","Smp","Smp","Avg","Avg","Avg","Avg","Smp","Smp","Smp","Smp"
"2018-07-13 00:00:00",349117,0,0,17.52,100,0,0,868.1985,0,22.01,2.87,241,20.32,19.54,0.3183217,0,50.55,57.45,33.43,35.09
"2018-07-13 00:10:00",349118,0,0,17.36,100,0,0,868.1669,0,21.8,2.872,249,20.36,19.53,0.2273727,0,50.61,57.45,33.45,35.09
"2018-07-13 00:20:00",349119,0,0,17.25,100,0,0,868.1585,0,21.42,2.877,256,20.34,19.53,0.2273727,0,50.55,57.45,33.43,35.09
"2018-07-13 00:30:00",349120,0.02,204.6,17.12,100,0,0,868.0932,0,21.35,2.877,251,20.28,19.52,0.2273727,0,50.55,57.45,33.43,35.09
"2018-07-13 00:40:00",349121,0.269,39.18,17.23,100,0,0,868.1164,0,21.47,2.875,242,20.24,19.52,0.4623244,0,50.55,57.45,33.43,35.09
"2018-07-13 00:50:00",349122,0.665,38.42,17.55,100,0,0,868.0721,0,20.51,2.883,244,20.23,19.53,0.8867534,0,50.55,57.45,33.43,35.09
"2018-07-13 01:00:00",349123,0.513,33.53,17.67,100,0,0,868.1332,0,20.75,2.88,235,20.26,19.54,0.8412789,0,50.55,57.45,33.43,35.09
"2018-07-13 01:10:00",349124,0.175,320.3,17.94,99.7,0,0,867.9289,0,21.24,2.874,239,20.32,19.53,0.8715953,0,50.55,57.45,33.43,35.09
"2018-07-13 01:20:00",349125,0.386,305.3,18.37,90.4,0,0,867.9121,0,20.92,2.875,214,20.32,19.54,1.121705,0,50.5,57.45,33.42,35.09
"2018-07-13 01:30:00",349126,0.225,301.6,18.4,88.4,0,0,867.9121,0,20.83,2.878,235,20.29,19.53,0.6896971,0,50.5,57.45,33.42,35.09
"2018-07-13 01:40:00",349127,0.318,348.4,18.47,86.5,0,0,867.9079,0,20.46,2.879,242,20.17,19.53,0.9132802,0,50.55,57.39,33.43,35.07
"2018-07-13 01:50:00",349128,0.109,293.6,18.24,88.6,0,0,867.9079,0,20.41,2.881,242,20.15,19.51,0.3031636,0,50.55,57.39,33.43,35.07
"2018-07-13 02:00:00",349129,0.185,212.6,18.12,90.3,0,0,867.8152,0,21.45,2.872,238,20.19,19.5,0.382744,0,50.5,57.39,33.42,35.07
"2018-07-13 02:10:00",349130,0.205,249.4,18.36,87.3,0,0,867.8784,0,20.24,2.882,243,20.23,19.47,0.8336998,0,50.5,57.39,33.42,35.07
"2018-07-13 02:20:00",349131,0.334,254.7,18.46,85.4,0,0,867.9121,0,21.03,2.876,225,20.18,19.47,0.8412789,0,50.5,57.39,33.42,35.07
"2018-07-13 02:30:00",349132,0.275,186.2,17.88,92.3,0,0,867.9121,0,20.44,2.883,234,20.07,19.46,0.2008459,0,50.55,57.39,33.43,35.07
"2018-07-13 02:40:00",349133,0.143,254.9,18.01,90.5,0,0,867.9121,0,20.93,2.877,216,20.06,19.47,0.5873794,0,50.55,57.39,33.43,35.07
"2018-07-13 02:50:00",349134,0.32,233.6,18.09,88.6,0,0,867.9121,0,14.01,2.944,278,20.09,19.47,0.7048553,0,50.55,57.39,33.43,35.07
"2018-07-13 03:00:00",349135,0.424,210,18.22,86.3,0,0,867.9036,0,20.62,2.88,234,20.1,19.47,0.8374893,0,50.55,57.39,33.43,35.07
"2018-07-13 03:10:00",349136,0.604,197.6,18.05,87.7,0,0,867.8552,0,20.89,2.878,233,20.12,19.48,0.6328539,0,50.5,57.39,33.42,35.07
"2018-07-13 03:20:00",349137,0.402,182.1,17.92,89.8,0,0,867.6931,0,21.36,2.875,248,20.04,19.51,0.4812722,0,50.55,57.33,33.43,35.06
"2018-07-13 03:30:00",349138,0.459,188.7,17.9,89,0,0,867.6509,0,21.37,2.874,253,19.98,19.53,0.6101167,0,50.55,57.33,33.43,35.06
"2018-07-13 03:40:00",349139,0.631,192.8,18,87.3,0,0,867.5414,0,20.64,2.879,241,19.99,19.54,0.9132802,0,50.5,57.33,33.42,35.06
"2018-07-13 03:50:00",349140,0.741,199.2,18.26,84.5,0,0,867.5161,0,20.43,2.881,236,20.01,19.54,1.015598,0,50.55,57.33,33.43,35.06
"2018-07-13 04:00:00",349141,0.567,194.9,18.14,85.2,0,0,867.5561,0,20.71,2.88,242,20.01,19.54,0.6252748,0,50.5,57.33,33.42,35.06
"2018-07-13 04:10:00",349142,0.449,176.1,17.59,91,0,0,867.6257,0,21.21,2.876,242,19.94,19.54,0.09852815,0,50.5,57.33,33.42,35.06
"2018-07-13 04:20:00",349143,0.304,216.1,17.73,88.4,0,0,867.6593,0,20.67,2.883,244,19.89,19.54,0.4433767,0,50.5,57.33,33.42,35.06
"2018-07-13 04:30:00",349144,0.259,286.8,17.39,92,0,0,867.6635,0,20.43,2.887,234,19.9,19.54,0.2235831,0,50.5,57.33,33.42,35.06
"2018-07-13 04:40:00",349145,0.218,96.3,17.12,95.3,0,0,867.6635,0,20.54,2.886,228,19.93,19.54,0.2917949,0,50.55,57.33,33.43,35.06
"2018-07-13 04:50:00",349146,0.065,133.4,16.74,99.6,2.649013,0,867.6257,0,20.92,2.884,233,19.95,19.54,0.7768566,0.365,50.5,57.33,33.42,35.06
"2018-07-13 05:00:00",349147,0.181,181.5,17.3,95,11.83409,0,867.6066,0,21.02,2.877,257,19.87,19.54,3.380274,0.286,50.5,57.33,33.42,35.06
"2018-07-13 05:10:00",349148,0.548,197.5,18,85.8,23.00397,0,867.6593,0,20.67,2.88,269,19.81,19.54,4.98704,0.22,50.5,57.33,33.42,35.06
"2018-07-13 05:20:00",349149,0.151,237,18.3,83.3,30.06277,0,867.6825,0,21.64,2.868,260,19.8,19.54,5.570631,0.185,50.5,57.27,33.42,35.05
"2018-07-13 05:30:00",349150,0.277,218.4,18.64,81.6,37.51459,0,867.7941,0,20.94,2.875,246,19.81,19.54,6.529386,0.175,50.5,57.33,33.42,35.06
"2018-07-13 05:40:00",349151,0.147,159.4,18.41,83.3,48.36611,0,867.8552,0,21.14,2.873,250,19.86,19.54,7.624564,0.157,50.5,57.27,33.42,35.05
"2018-07-13 05:50:00",349152,0.191,177.3,18.14,85.9,57.59443,0,867.8931,0,20.99,2.876,241,19.88,19.54,8.579529,0.149,50.5,57.33,33.42,35.06
"2018-07-13 06:00:00",349153,0.167,129,18.13,86.9,60.76223,0,867.9121,0,20.97,2.876,241,19.82,19.52,8.7349,0.144,50.5,57.33,33.42,35.06
"2018-07-13 06:10:00",349154,0.06,154.6,17.94,89.5,63.85537,0,867.9121,0,20.89,2.878,241,19.72,19.5,8.746268,0.137,50.5,57.33,33.42,35.06
"2018-07-13 06:20:00",349155,0.344,215.9,18.27,85,69.23986,0,867.9121,0,20.94,2.875,234,19.71,19.45,10.24693,0.147,50.5,57.27,33.42,35.05
"2018-07-13 06:30:00",349156,0.377,200.6,18.48,84,75.16281,0,867.9121,0,22.24,2.862,353,19.73,19.43,11.54295,0.153,50.5,57.33,33.42,35.06
"2018-07-13 06:40:00",349157,0.569,230,18.62,85.7,89.68521,0,867.9121,0,20.45,2.878,242,19.75,19.4,14.10847,0.157,50.5,57.27,33.42,35.05
"2018-07-13 06:50:00",349158,0.291,206.6,18.69,87,77.38342,0,867.9121,0,21.06,2.873,251,19.73,19.39,10.1863,0.132,50.5,57.27,33.42,35.05
"2018-07-13 07:00:00",349159,0.305,240,18.49,90,93.41505,0,867.9163,0,-18.71,3.258,194,19.68,19.37,12.58508,0.134,50.5,57.27,33.42,35.05
"2018-07-13 07:10:00",349160,0.369,203.2,18.64,88.2,105.2806,0,868.1016,0,21.43,2.87,280,19.62,19.36,15.48408,0.144,50.5,57.27,33.42,35.05
"2018-07-13 07:20:00",349161,0.347,173.7,18.61,93.8,134.2272,0,868.0216,0,21.3,2.87,248,19.59,19.36,24.43877,0.178,50.5,57.27,33.42,35.05
"2018-07-13 07:30:00",349162,0.366,183.8,18.99,87.6,121.6738,0,867.9901,0,-19.14,3.259,196,19.59,19.36,24.72678,0.202,50.5,57.27,33.42,35.05
"2018-07-13 07:40:00",349163,0.272,214.1,19.46,86.4,184.1104,0,867.9247,0,-22.65,3.289,198,19.59,19.36,36.95943,0.199,50.5,57.27,33.42,35.05
"2018-07-13 07:50:00",349164,0.478,149.7,19.86,83.5,337.7728,0,867.9479,0,21.49,2.863,285,19.59,19.36,50.93906,0.168,50.5,57.27,33.42,35.05
"2018-07-13 08:00:00",349165,0.722,160.8,20.09,84.9,728.8442,0,867.9121,0,16.05,2.913,290,19.58,19.36,77.80313,0.107,50.5,57.27,33.42,35.05
"2018-07-13 08:10:00",349166,0.572,166.3,20.67,78.71,716.904,0,867.9121,0,-19.51,3.25,194,19.58,19.36,92.42699,0.129,50.5,57.22,33.42,35.03
"2018-07-13 08:20:00",349167,0.454,262.4,21.52,73.69,637.6301,0,867.9121,0,17.02,2.898,264,19.55,19.35,87.26563,0.137,50.5,57.27,33.42,35.05
"2018-07-13 08:30:00",349168,0.429,10.62,21.28,74.44,585.5656,0,867.91,0,22.55,2.845,226,19.54,19.33,82.93418,0.138,50.5,57.22,33.42,35.03
"2018-07-13 08:40:00",349169,0.589,105.5,21.03,78.25,376.6944,0,867.8931,0,16.1,2.911,235,19.58,19.35,51.97739,0.135,50.5,57.22,33.42,35.03
"2018-07-13 08:50:00",349170,0.486,280.3,20.99,77.53,529.7359,0,867.7815,0,15.52,2.914,237,19.58,19.36,77.44313,0.145,50.5,57.22,33.42,35.03
"2018-07-13 09:00:00",349171,0.779,283.9,20.93,75.69,458.0278,0,867.8376,0,19.72,2.875,244,19.58,19.36,65.79408,0.143,50.5,57.22,33.42,35.03
"2018-07-13 09:10:00",349172,0.489,190,21.06,74.99,635.5352,0,867.8491,0,18.14,2.887,318,19.57,19.34,93.64343,0.147,50.44,57.22,33.41,35.03
"2018-07-13 09:20:00",349173,0.374,13.63,21.7,73.99,684.8957,0,867.8378,0,-20.41,3.257,185,19.59,19.33,99.31638,0.145,50.5,57.22,33.42,35.03
"2018-07-13 09:30:00",349174,0.725,299,21.87,72.19,813.0546,0,867.7345,0,20.51,2.863,251,19.59,19.31,118.6961,0.145,50.5,57.16,33.42,35.02
"2018-07-13 09:40:00",349175,0.534,332.8,21.84,73.24,617.2358,0,867.7877,0,12.16,2.942,240,19.6,19.29,88.7246,0.143,50.44,57.16,33.41,35.02
"2018-07-13 09:50:00",349176,0.587,357.8,22.13,73.95,713.5947,0,867.8955,0,22.31,2.841,290,19.64,19.29,106.3195,0.148,50.5,57.16,33.42,35.02
"2018-07-13 10:00:00",349177,0.574,37.35,22.56,73.53,745.5361,0,867.7972,0,-29,3.336,204,19.61,19.28,110.6699,0.147,50.44,57.16,33.41,35.02
"2018-07-13 10:10:00",349178,0.518,8.72,22.48,74.1,741.6491,0,867.6906,0,-17.65,3.224,192,19.6,19.28,110.037,0.146,50.44,57.16,33.41,35.02
"2018-07-13 10:20:00",349179,0.462,26.22,22.37,73.84,423.7596,0,867.6495,0,-21.31,3.264,190,19.65,19.29,59.367,0.139,50.39,57.16,33.39,35.02
"2018-07-13 10:30:00",349180,0.697,275.7,21.74,73.04,478.4967,0,867.7706,0,318,0,0,19.67,19.26,69.26529,0.144,50.39,57.16,33.39,35.02
"2018-07-13 10:40:00",349181,0.387,271,21.51,75.2,348.7658,0,867.8725,0,-25.95,3.312,252,19.67,19.24,49.46113,0.141,50.39,57.16,33.39,35.02
"2018-07-13 10:50:00",349182,0.24,351.2,21.48,76.1,328.2025,0,867.9117,0,15.35,2.913,323,19.74,19.24,45.78907,0.139,50.33,57.1,33.38,35.01
"2018-07-13 11:00:00",349183,0.345,251.7,21.81,74.35,588.9968,0,867.872,0,-24.43,3.295,201,19.75,19.24,89.66441,0.149,50.39,57.16,33.39,35.02
"2018-07-13 11:10:00",349184,0.596,12.47,22.05,71.45,602.4147,0,867.6699,0,11.71,2.945,256,19.8,19.24,90.48674,0.149,50.39,57.1,33.39,35.01
"2018-07-13 11:20:00",349185,0.4,143.3,22.5,71.53,708.0294,0,867.6214,0,12.32,2.937,254,19.78,19.24,107.1039,0.151,50.33,57.1,33.38,35.01
"2018-07-13 11:30:00",349186,0.458,305,22.45,70.07,775.1823,0,867.4255,0,-17.08,3.219,180,19.89,19.24,118.0708,0.151,50.33,57.1,33.38,35.01
"2018-07-13 11:40:00",349187,0.458,160.5,22.99,69.05,553.8127,0,867.4066,0,-15.91,3.209,176,19.91,19.24,80.5695,0.143,50.33,57.1,33.38,35.01
"2018-07-13 11:50:00",349188,0.292,108.8,22.61,70.54,467.2875,0,867.4066,0,20.21,2.862,307,19.94,19.24,68.4657,0.146,50.33,57.04,33.38,34.99
"2018-07-13 12:00:00",349189,0.518,39.76,22.83,68.54,640.2438,0,867.2487,0,23.93,2.825,370,19.98,19.24,96.9176,0.151,50.28,57.04,33.37,34.99
"2018-07-13 12:10:00",349190,0.184,177.2,22.83,68.52,544.5374,0,867.1539,0,24.2,2.821,287,20.02,19.24,78.70884,0.143,50.28,57.04,33.37,34.99
"2018-07-13 12:20:00",349191,0.192,345.7,23.06,69.37,596.928,0,867.1301,0,26.76,2.795,398,20.08,19.23,86.92457,0.142,50.22,57.04,33.35,34.99
"2018-07-13 12:30:00",349192,0.386,315.5,23.25,68.89,452.2385,0,867.114,0,-18.43,3.232,182,20.13,19.23,63.92962,0.136,50.28,56.98,33.37,34.98
"2018-07-13 12:40:00",349193,0.547,43.75,22.73,72.38,411.8823,0,867.0248,0,14.82,2.913,293,20.14,19.2,58.98426,0.14,50.22,57.04,33.35,34.99
"2018-07-13 12:50:00",349194,0.317,43.6,22.58,72.02,495.0039,0,866.9052,0,16.08,2.9,244,20.18,19.17,72.91842,0.142,50.22,56.98,33.35,34.98
"2018-07-13 13:00:00",349195,0.346,318.7,23.43,66.35,941.8304,0,866.9011,0,23.85,2.82,288,20.24,19.22,148.0537,0.154,50.17,57.04,33.34,34.99
"2018-07-13 13:10:00",349196,0.352,266.2,24.17,61.9,1010.17,0,866.9011,0,24.43,2.812,244,20.27,19.22,156.637,0.153,50.22,57.04,33.35,34.99
"2018-07-13 13:20:00",349197,0.507,280.9,24.44,60.57,960.9041,0,866.7768,0,9.86,2.952,278,20.32,19.23,149.3573,0.155,50.22,57.04,33.35,34.99
"2018-07-13 13:30:00",349198,0.408,282,24.35,60.46,937.9119,0,866.6484,0,-19.3,3.232,189,20.41,19.22,146.14,0.156,50.17,56.98,33.34,34.98
"2018-07-13 13:40:00",349199,0.485,271.8,24.69,59.05,934.5004,0,866.6389,0,22.09,2.834,284,20.38,19.22,145.4276,0.156,50.11,56.98,33.33,34.98
"2018-07-13 13:50:00",349200,0.387,301.7,24.64,57.81,887.4391,0,866.6053,0,20.92,2.846,297,20.45,19.21,137.8977,0.155,50.17,56.98,33.34,34.98
"2018-07-13 14:00:00",349201,0.402,279.3,24.74,57.34,877.8177,0,866.5974,0,22.85,2.825,298,20.5,19.22,136.2531,0.155,50.06,56.93,33.31,34.97
"2018-07-13 14:10:00",349202,0.335,275.5,24.86,57.17,938.6823,0,866.5259,0,-18.3,3.218,213,20.57,19.23,144.7113,0.154,50.11,56.93,33.33,34.97
"2018-07-13 14:20:00",349203,0.766,265.8,24.59,57.68,854.3854,0,866.4288,0,-17.78,3.216,184,20.63,19.24,128.4731,0.15,50.11,56.93,33.33,34.97
"2018-07-13 14:30:00",349204,0.437,269.9,24.62,57.27,775.3277,0,866.3972,0,10.66,2.943,297,20.69,19.23,113.3832,0.144,50.06,56.93,33.31,34.97
"2018-07-13 14:40:00",349205,0.354,229.4,24.66,59.47,754.8627,0,866.3957,0,-20.39,3.241,260,20.73,19.23,103.1628,0.137,50.01,56.87,33.3,34.95
"2018-07-13 14:50:00",349206,0.853,58.86,24.74,58.67,799.6365,0,866.3891,0,20.81,2.845,278,20.8,19.23,100.6086,0.126,49.95,56.87,33.28,34.95
"2018-07-13 15:00:00",349207,0.28,282.4,24.63,59.39,757.4213,0,866.3876,0,-18.97,3.227,183,20.86,19.2,77.9244,0.102,49.95,56.87,33.28,34.95
"2018-07-13 15:10:00",349208,0.535,276.9,24.21,60.65,757.1147,0,866.3928,0,-20.68,3.246,237,20.94,19.17,59.24953,0.078,49.9,56.87,33.27,34.95
"2018-07-13 15:20:00",349209,0.688,343.6,24.04,62.44,590.9462,0,866.3907,0,21.49,2.843,256,20.98,19.23,42.1511,0.073,49.95,56.87,33.28,34.95
"2018-07-13 15:30:00",349210,0.539,29.54,23.99,64.4,361.7082,0,866.3954,0,19.04,2.867,339,21.05,19.22,29.78582,0.108,49.9,56.87,33.27,34.95
"2018-07-13 15:40:00",349211,0.632,341.8,23.57,64.89,126.0482,0,866.4545,0,20.63,2.853,270,21.11,19.2,23.73013,0.196,49.9,56.81,33.27,34.94
"2018-07-13 15:50:00",349212,0.657,315.6,23.49,65.79,100.2695,0,866.5346,0,22.47,2.837,320,21.18,19.26,19.38352,0.194,49.84,56.81,33.26,34.94
"2018-07-13 16:00:00",349213,0.601,214.9,23.1,67.63,90.99793,0,866.6146,0,21.5,2.848,250,21.29,19.28,15.95777,0.176,49.79,56.81,33.24,34.94
"2018-07-13 16:10:00",349214,0.527,173.9,22.89,69.32,89.89352,0,866.6462,0,21.38,2.85,294,21.3,19.27,15.17713,0.169,49.84,56.75,33.26,34.93
"2018-07-13 16:20:00",349215,0.447,103.3,22.67,71.26,88.94239,0,866.6442,0,21.33,2.85,349,21.36,19.27,14.26006,0.16,49.79,56.75,33.24,34.93
"2018-07-13 16:30:00",349216,0.561,178.4,22.43,72.65,81.4827,0,866.6484,0,20.94,2.858,280,21.44,19.32,11.85748,0.146,49.79,56.75,33.24,34.93
"2018-07-13 16:40:00",349217,0.595,167.1,22.15,74.84,71.54694,0,866.6462,0,8.3,2.98,264,21.49,19.33,10.38714,0.146,49.73,56.75,33.23,34.93
"2018-07-13 16:50:00",349218,0.549,255.3,21.97,73.96,68.15118,0,866.6484,0,-20.51,3.257,194,21.54,19.36,9.606495,0.141,49.73,56.7,33.23,34.91
"2018-07-13 17:00:00",349219,0.554,179.9,21.96,75.48,79.03807,0,866.6842,0,-26.02,3.309,197,21.53,19.4,11.43684,0.144,49.73,56.75,33.23,34.93
"2018-07-13 17:10:00",349220,0.192,90.5,22.03,75.15,82.23732,0,866.7516,0,16.38,2.901,284,21.51,19.43,11.55432,0.139,49.73,56.7,33.23,34.91
"2018-07-13 17:20:00",349221,0.304,203.9,21.67,77.94,95.91472,0,866.7073,0,27.68,2.794,320,21.55,19.41,14.5708,0.152,49.73,56.7,33.23,34.91
"2018-07-13 17:30:00",349222,0.365,81.8,22.04,77.2,117.264,0,866.8021,0,17,2.895,310,21.64,19.41,18.29213,0.156,49.68,56.7,33.22,34.91
"2018-07-13 17:40:00",349223,0.429,57.81,22.19,76.44,109.0655,0,866.7831,0,-29.53,3.343,265,21.67,19.4,17.35611,0.159,49.68,56.7,33.22,34.91
"2018-07-13 17:50:00",349224,0.265,152.7,21.94,78.21,103.3587,0,866.8737,0,13.02,2.934,292,21.66,19.39,14.8967,0.143,49.73,56.7,33.23,34.91
"2018-07-13 18:00:00",349225,0.128,74.3,21.85,78.91,80.14248,0,866.9011,0,-13,3.185,188,21.65,19.42,11.08821,0.138,49.68,56.7,33.22,34.91
"2018-07-13 18:10:00",349226,0.356,95.8,21.59,81.4,56.40355,0,866.9011,0,5.416,3.01,245,21.66,19.49,6.828759,0.117,49.62,56.7,33.2,34.91
"2018-07-13 18:20:00",349227,0.141,108.9,21.26,82.8,45.1079,0,866.9601,0,-13.29,3.192,194,21.67,19.54,5.411469,0.118,49.62,56.64,33.2,34.9
"2018-07-13 18:30:00",349228,0.099,139,20.94,85.4,34.97955,0,867.0906,0,-14.75,3.207,194,21.67,19.54,4.092708,0.114,49.62,56.64,33.2,34.9
"2018-07-13 18:40:00",349229,0.073,154.4,20.84,85.2,32.05935,0,867.1539,0,17.54,2.896,315,21.67,19.54,4.308712,0.122,49.62,56.64,33.2,34.9
"2018-07-13 18:50:00",349230,0,0,20.6,86.1,7.758387,0,867.1539,0,17.35,2.9,305,21.67,19.53,0.3865336,0.036,49.62,56.64,33.2,34.9
"2018-07-13 19:00:00",349231,0,0,20.23,87.3,1.941562,0,867.1791,0,-15.39,3.218,173,21.68,19.52,0,0,49.62,56.64,33.2,34.9
"2018-07-13 19:10:00",349232,0.085,32.65,19.8,89.9,0.06288459,0,867.1581,0,-24.41,3.308,198,21.71,19.51,0,0,49.62,56.64,33.2,34.9
"2018-07-13 19:20:00",349233,0.059,78.61,19.33,93.4,0,0,867.1581,0,-15.36,3.221,177,21.71,19.54,0,0,49.62,56.58,33.2,34.88
"2018-07-13 19:30:00",349234,0.049,16.44,19.37,91.3,0,0,867.1664,0,-15.1,3.219,171,21.65,19.61,0.1174759,0,49.62,56.58,33.2,34.88
"2018-07-13 19:40:00",349235,0.115,349.6,19.12,93.3,0,0,867.1581,0,-15.11,3.221,178,21.59,19.66,0.04168499,0,49.57,56.58,33.19,34.88
"2018-07-13 19:50:00",349236,0.104,8.24,19.28,92.5,0,0,867.276,0,-15.67,3.224,175,21.59,19.63,0.5153781,0,49.62,56.58,33.2,34.88
"2018-07-13 20:00:00",349237,0.299,4.965,19.58,90.1,0,0,867.3392,0,26.49,2.815,318,21.61,19.63,0.6896971,0,49.57,56.58,33.19,34.88
"2018-07-13 20:10:00",349238,0.237,60.2,19.55,89.5,0,0,867.4066,0,-16.29,3.231,173,21.63,19.6,0.3675858,0,49.57,56.58,33.19,34.88
"2018-07-13 20:20:00",349239,0.222,55.16,18.9,97.3,0,0,867.5098,0,7.492,3.002,212,21.64,19.62,0.03789544,0,49.62,56.58,33.2,34.88
"2018-07-13 20:30:00",349240,0.297,34.17,19.34,92,0,0,867.6488,0,9.15,2.984,239,21.61,19.69,0.6859075,0,49.62,56.52,33.2,34.87
"2018-07-13 20:40:00",349241,0.117,40.7,19.51,89.1,0,0,867.5013,0,6.549,3.01,203,21.6,19.75,0.5873794,0,49.57,56.58,33.19,34.88
"2018-07-13 20:50:00",349242,0.05,167.2,18.65,97.4,0,0,867.5961,0,-15.57,3.23,187,21.54,19.74,0.003789545,0,49.62,56.52,33.2,34.87
"2018-07-13 21:00:00",349243,0.111,164.1,18.11,100,0,0,867.6277,0,-15.13,3.226,175,21.56,19.73,0,0,49.57,56.52,33.19,34.87
"2018-07-13 21:10:00",349244,0.07,163.4,18.05,100,0,0,867.6488,0,25.83,2.831,350,21.47,19.72,0,0,49.57,56.52,33.19,34.87
"2018-07-13 21:20:00",349245,0.148,178.1,17.81,100,0,0,867.6572,0,25.97,2.829,348,21.45,19.71,0.04547453,0,49.51,56.52,33.18,34.87
"2018-07-13 21:30:00",349246,0.034,208.7,17.86,100,0,0,867.5772,0,27.26,2.817,283,21.49,19.74,0.2273727,0,49.57,56.58,33.19,34.88
"2018-07-13 21:40:00",349247,0.136,177.4,17.73,100,0,0,867.4213,0,27.14,2.819,312,21.41,19.81,0.2614786,0,49.57,56.52,33.19,34.87
"2018-07-13 21:50:00",349248,0.024,173.4,17.81,100,0,0,867.4129,0,27.07,2.818,320,21.36,19.86,0.5722212,0,49.57,56.52,33.19,34.87
"2018-07-13 22:00:00",349249,0.031,173.3,17.69,100,0,0,867.4635,0,27.45,2.816,302,21.39,19.88,0.3069531,0,49.57,56.52,33.19,34.87
"2018-07-13 22:10:00",349250,0.015,171.9,17.69,100,0,0,867.6235,0,-12.46,3.203,170,21.31,19.89,0.4282224,0,49.51,56.52,33.18,34.87
"2018-07-13 22:20:00",349251,0.289,190.7,17.47,100,0,0,867.6488,0,-15.71,3.235,176,21.29,19.89,0.2273781,0,49.57,56.52,33.19,34.87
"2018-07-13 22:30:00",349252,0.017,192.3,17.56,100,0,0,867.6488,0,-14.88,3.226,172,21.32,19.89,0.5153905,0,49.57,56.52,33.19,34.87
"2018-07-13 22:40:00",349253,0.199,192.1,17.43,100,0,0,867.6509,0,4.37,3.041,259,21.23,19.88,0.2842197,0,49.51,56.46,33.18,34.86
"2018-07-13 22:50:00",349254,0.221,192.1,17.37,100,0,0,867.6593,0,-25.69,3.332,197,21.19,19.85,0.2955858,0,49.51,56.46,33.18,34.86
"2018-07-13 23:00:00",349255,0.024,193.1,17.52,100,0,0,867.6593,0,1.985,3.063,212,21.24,19.81,0.6821188,0,49.57,56.46,33.19,34.86
"2018-07-13 23:10:00",349256,0.074,192.8,17.48,100,0,0,867.6593,0,4.006,3.045,249,21.19,19.8,0.4888513,0,49.51,56.46,33.18,34.86
"2018-07-13 23:20:00",349257,0.118,192.3,17.31,100,0,0,867.6593,0,-25.9,3.335,224,21.11,19.81,0.3562192,0,49.51,56.46,33.18,34.86
"2018-07-13 23:30:00",349258,0.081,191.6,17.25,100,0,0,867.6572,0,2.889,3.056,236,21.15,19.84,0.3221233,0,49.57,56.46,33.19,34.86
"2018-07-13 23:40:00",349259,0.037,40.29,17.61,100,0,0,867.5793,0,0.551,3.078,202,21.04,19.87,1.034586,0,49.57,56.46,33.19,34.86
"2018-07-13 23:50:00",349260,0,0,17.25,100,0,0,867.5035,0,16.88,2.921,445,21.03,19.89,0.2349556,0,49.51,56.41,33.18,34.84
